Home   Weather   Schwedt/Oder   Past weeks

Flag for Germany Past Weather in Schwedt/Oder, Brandenburg, Germany — Yesterday and Last 2 Weeks

Now
36 °F

Fog.


Feels Like: 32 °F
Forecast: 28 / 34 °F
Wind: 5 mph from West

Location: Szczecin Airport

Current Time: Jan 21, 2017 at 3:14:08 am

Latest Report: Jan 21, 2017 at 2:30 am


Visibility: 2 mi

Pressure: 30.45 "Hg

Humidity: 93%

Dew Point: 34 °F

Location of Schwedt/OderLocation

Past Weather in Schwedt/Oder — Graph

°F

Schwedt/Oder Temperature Yesterday

Maximum temperature yesterday: 36 °F (at 12:00 pm)
Minimum temperature yesterday: 30 °F (at 12:00 am)
Average temperature yesterday: 34 °F

High & Low Weather Summary for the Past Weeks

 TemperatureHumidityPressure
High37 °F (Jan 12, 1:30 am)100% (Jan 7, 12:00 am)30.72 "Hg (Jan 7, 12:00 am)
Low14 °F (Jan 7, 2:00 am)68% (Jan 11, 12:00 pm)29.06 "Hg (Jan 13, 9:30 am)
Average27 °F91%30.14 "Hg
* Reported Jan 6 2:00 am — Jan 21 2:00 am, Schwedt/Oder, Weather by CustomWeather, © 2017

Note: Actual official high and low records may vary slightly from our data, if they occured in-between our weather recording intervals... More about our weather records

Advertising

Schwedt/Oder Weather History for the Previous 24 Hours

Scroll right to see more
 ConditionsComfort  
Time TempWeatherWind HumidityBarometerVisibility
2:00 am
Sat, Jan 21
36 °FFog.6 mph93%30.42 "Hg2 mi
1:30 am36 °FFog.6 mph93%30.45 "Hg2 mi
1:00 am36 °FFog.5 mph93%30.45 "Hg2 mi
12:30 am36 °FFog.6 mph93%30.45 "Hg3 mi
12:00 am36 °FFog.6 mph93%30.45 "Hg3 mi
11:30 pm
Fri, Jan 20
36 °FFog.6 mph93%30.45 "Hg3 mi
11:00 pm36 °FFog.7 mph93%30.45 "Hg3 mi
10:30 pm36 °FFog.7 mph93%30.48 "Hg2 mi
10:00 pm36 °FFog.6 mph93%30.48 "Hg1 mi
9:30 pm34 °FFog.3 mph100%30.48 "Hg2 mi
9:00 pm32 °FFog.2 mph100%30.48 "Hg1 mi
8:30 pm34 °FFog.5 mph100%30.48 "Hg1 mi
8:00 pm34 °FFog.5 mph100%30.48 "Hg1 mi
7:30 pm36 °FFog.5 mph93%30.45 "Hg2 mi
7:00 pm36 °FFog.5 mph93%30.45 "Hg3 mi
6:30 pm36 °FFog.5 mph93%30.48 "Hg2 mi
6:00 pm36 °FFog.6 mph93%30.45 "Hg2 mi
5:30 pm36 °FFog.5 mph93%30.48 "Hg2 mi
5:00 pm36 °FFog.6 mph93%30.48 "Hg2 mi
4:30 pm36 °FFog.6 mph93%30.48 "Hg2 mi
4:00 pm36 °FFog.7 mph100%30.48 "Hg2 mi
3:30 pm36 °FFog.7 mph100%30.48 "Hg2 mi
3:00 pm36 °FFog.6 mph100%30.48 "Hg2 mi
2:30 pm36 °FFog.7 mph100%30.48 "Hg3 mi
2:00 pm36 °FFog.7 mph100%30.48 "Hg3 mi
1:30 pm36 °FFog.7 mph100%30.48 "Hg2 mi
1:00 pm36 °FFog.8 mph100%30.48 "Hg2 mi
12:30 pm36 °FFog.6 mph93%30.48 "Hg2 mi
12:00 pm36 °FFog.6 mph93%30.51 "Hg1 mi
11:30 am34 °FFog.6 mph100%30.51 "Hg1 mi
11:00 am34 °FFog.6 mph100%30.51 "Hg1 mi
10:30 am34 °FDrizzle. Fog.6 mph100%30.51 "Hg1 mi
10:00 am34 °FDrizzle. Fog.6 mph100%30.51 "Hg1 mi
9:30 am34 °FDrizzle. Fog.6 mph100%30.51 "Hg1 mi
9:00 am34 °FDrizzle. Fog.6 mph100%30.51 "Hg1 mi
8:30 am34 °FDrizzle. Fog.5 mph100%30.51 "Hg1 mi
8:00 am34 °FDrizzle. Fog.5 mph93%30.51 "Hg1 mi
7:30 am34 °FFog.5 mph93%30.51 "Hg1 mi
7:00 am34 °FFog.6 mph93%30.51 "Hg1 mi
6:30 am32 °FIce fog.7 mph100%30.51 "Hg1 mi
6:00 am32 °FIce fog.6 mph100%30.51 "Hg1 mi
5:30 am32 °FIce fog.5 mph100%30.51 "Hg1 mi
5:00 am32 °FIce fog.3 mph100%30.54 "Hg1 mi
4:30 am32 °FIce fog.3 mph100%30.54 "Hg1 mi
4:00 am32 °FIce fog.3 mph100%30.54 "Hg1 mi
3:30 am32 °FIce fog.5 mph93%30.51 "Hg1 mi
3:00 am32 °FIce fog.5 mph93%30.54 "Hg1 mi
Weather by CustomWeather, © 2017

See weather overviewHow to use our weather pages